Location: Casone le Fosse
(44.6547°N, 12.1103°E)
Time: 11:36:32
(UTC+00:00)

Cosmos 2082 - Pass Details

Date: 29 October 2020
Orbit: 832 x 857 km, 71.0° (Epoch: 28 November)

Event Time Altitude Azimuth Distance (km) Brightness Sun altitude
Rises 18:12:09 0° 331° (NNW) 3,437 7.3 -23.3°
Reaches altitude 10° 18:14:39 10° 327° (NNW) 2,498 6.6 -23.7°
Maximum altitude 18:20:15 57° 250° (WSW) 1,007 4.3 -24.7°
Enters shadow 18:25:43 11° 174° (S) 2,439 6.0 -25.7°
